Location: Bremen
(53.0796°N, 8.8241°E)
Time: 16:43:28
(UTC+01:00)

ISS - Pass Details

Date: 12 November 2017
Orbit: 402 x 407 km, 51.6° (Epoch: 19 November)

Event Time Altitude Azimuth Distance (km) Brightness Sun altitude
Exits shadow 04:20:03 12° 96° (E) 1,339 -0.4 -30.3°
Drops below altitude 10° 04:20:26 - 95° (E) 1,495 -0.1 -30.3°
Sets 04:22:25 0° 94° (E) 2,317 1.1 -30.0°
